Location: El Carrer d�Abaix
(41.5797°N, 2.1791°E)
Time: 20:28:23
(UTC+00:00)

Cosmos 2082 Rocket - Pass Details

Date: 04 October 2020
Orbit: 834 x 853 km, 71.0° (Epoch: 27 October)

Event Time Altitude Azimuth Distance (km) Brightness Sun altitude
Rises 20:16:51 0° 319° (NW) 3,394 6.3 -31.8°
Reaches altitude 10° 20:20:03 10° 301° (WNW) 2,457 5.5 -32.4°
Maximum altitude 20:23:40 18° 261° (W) 1,965 4.6 -33.0°
Drops below altitude 10° 20:27:17 10° 220° (SW) 2,454 4.7 -33.6°
Enters shadow 20:27:43 - 217° (SW) 2,563 4.8 -33.6°
